Regional Weather Roundup
Issued by NWS

Home | Current Version | Previous Version | Text Only | Print | Product List | Glossary On
Versions: 1 2 3 4 5 6 7 8 9 10 11 12 13 14 15 16 17 18 19 20 21 22 23 24 25 26 27 28 29 30 31 32 33 34 35 36 37 38 39 40 41 42 43 44 45 46 47 48 49 50
000
ASUS45 KABQ 271510
RWRNM
WEATHER ROUNDUP FOR NEW MEXICO
NATIONAL WEATHER SERVICE ALBUQUERQUE NM
900 AM MDT MON APR 27 2015

NOTE: "FAIR" MEANS FEW OR NO CLOUDS BELOW 12,000 FEET AGL WITH NO
       SIGNIFICANT WEATHER OR OBSTRUCTIONS TO VISION.

      THIS PRODUCT IS RELEASED AS TWO VERSIONS.  ONE VERSION NEAR
      THE TOP OF THE HOUR CONTAINING PRELIMINARY DATA FROM ALBUQUERQUE
      AND OTHER STATIONS.  A FINAL VERSION WITH ADDITIONAL DATA IS
      ISSUED ABOUT 10 MINUTES AFTER THE HOUR.

NMZ501-503-504-510>518-271600-
NORTHWEST PLATEAU/NORTHCENTRAL MOUNTAINS

CITY           SKY/WX    TMP DP  RH WIND       PRES   REMARKS
FARMINGTON     SUNNY     47  40  76 CALM      30.05R
LOS ALAMOS     PTSUNNY   42  32  67 N17       30.06R
SANTA FE       PTSUNNY   43  36  76 N12       30.03R
TAOS           MOSUNNY   43  30  61 NE9       30.06R

$$
NMZ402-403-502-505>509-271600-
WESTCENTRAL MOUNTAINS/SOUTHWEST MOUNTAINS

CITY           SKY/WX    TMP DP  RH WIND       PRES   REMARKS
GALLUP         PTSUNNY   46  40  79 NE10      30.07R
GRANTS         PTSUNNY   44  40  87 NW5       30.08R
SILVER CITY      N/A     50  37  62 NW9       29.99R

$$
NMZ407-409-411-412-271600-
SOUTHERN DESERTS

CITY           SKY/WX    TMP DP  RH WIND       PRES   REMARKS
LORDSBURG      FAIR      50  39  66 NW7       29.97R
DEMING         MOSUNNY   50  40  68 CALM      29.96R
LAS CRUCES     SUNNY     54  40  60 N17G24    29.96R
ALAMOGORDO     MOSUNNY   54  41  62 N14       29.93R
T OR C         CLOUDY    50  41  71 NE12      29.99R

$$
NMZ519>523-271600-
CENTRAL VALLEYS/CENTRAL HIGHLANDS

CITY           SKY/WX    TMP DP  RH WIND       PRES   REMARKS
ALBUQUERQUE    CLOUDY    48  40  73 W6        30.03R
DOUBLE EAGLE   PTSUNNY   45  39  81 N9        30.05R
MORIARTY ARPT  FAIR      42  35  76 N9        30.06R
CLINES CORNERS FLURRIES  36  34  92 NE14G22   30.02R WCI  27
BELEN          CLOUDY    46  42  85 NW6       30.04R
SOCORRO        PTSUNNY   48  42  80 N12       30.03R

$$
NMZ524>526-539-540-271600-
SOUTHCENTRAL MOUNTAINS

CITY           SKY/WX    TMP DP  RH WIND       PRES   REMARKS
RUIDOSO        CLOUDY    39  37  93 N10G20    30.01R WCI  32

$$
NMZ527>531-271600-
NORTHEAST HIGHLANDS/NORTHEAST PLAINS

CITY           SKY/WX    TMP DP  RH WIND       PRES   REMARKS
LAS VEGAS      CLOUDY    36  33  89 N22G28    30.04R WCI  25
RATON          CLOUDY    40  32  73 NE21      30.07R WCI  30
CLAYTON        LGT RAIN  39  37  92 N25G37    30.03R FOG     WCI  28

$$
NMZ532>537-271600-
EASTCENTRAL PLAINS

CITY           SKY/WX    TMP DP  RH WIND       PRES   REMARKS
TUCUMCARI      RAIN      43  40  89 N17       29.99R
CANNON AFB     NOT AVBL
CLOVIS AIRPORT PTSUNNY   46  41  81 N25G31    29.92R

$$
NMZ028-029-538-271600-
SOUTHEAST PLAINS

CITY           SKY/WX    TMP DP  RH WIND       PRES   REMARKS
ROSWELL        CLOUDY    53  42  66 N24G32    29.92R
ARTESIA        CLOUDY    55  45  67 N21G29    29.92R
CARLSBAD       MOSUNNY   57  42  57 N18       29.88R
HOBBS          PTSUNNY   54  48  82 N8        29.87R


$$


USA.gov is the U.S. government's official web portal to all federal, state and local government web resources and services.